Погода в Янджу

Южная Корея     37°48′31″N   127°01′06″E
темп.,
°C
ветер,
м/с
пор.,
м/с
влажн.,
%
обл.,
%
осадки,
мм/ч
давл.,
гПа
погр.,
м
6 марта, сб
сб600:00+7с1181100 0.0 102422
03:00+6с1185100 0.0 102422
06:00+5с239198 0.0 1027113
09:00+6ссв237499 0.0 1028236
12:00+8в2446100 0.0 1029705
15:00+10юв224293 0.0 1028966
18:00+8юв2346100 0.0 1029650
21:00+5в235160 0.0 1031470
7 марта, вс
вс700:00+3в225436 0.0 1032366
03:00+2в225762 0.0 1031284
06:00+1всв125980 0.0 1031222
09:00+3в125350 0.0 1031299
12:00+7ю114153 0.0 1029630
15:00+10з113872 0.0 1027973
18:00+9сз223731 0.0 10271169
21:00+7сз234816 0.0 1028284
8 марта, пн
пн800:00+5сз11590 0.0 102884
03:00+4с12600 0.0 102863
06:00+3ссв12590 0.0 102845
09:00+5ссв11500 0.0 1029216
12:00+10ссз00270 0.0 1028677
15:00+12з11160 0.0 1026975
18:00+11зсз11150 0.0 10261156
21:00+8сз12290 0.0 1028162
9 марта, вт
вт900:00+6сз11370 0.0 102746
03:00+5ссв013926 0.0 102722
06:00+4всв0042100 0.0 102622
09:00+6ю1138100 0.0 1027213
12:00+10з232580 0.0 1026826
15:00+11зсз352356 0.0 10241145
18:00+10зсз46310 0.0 1025800
21:00+8з13440 0.0 1027370
10 марта, ср
ср1000:00+7з11560 0.0 102731
03:00+5зюз01640 0.0 102822
06:00+4всв11670 0.0 102922
09:00+6вюв11560 0.0 1030256
12:00+10юв233954 0.0 1029764
15:00+14ююз222638 0.0 10271063
18:00+13зюз22258 0.0 10261056
21:00+10сз114238 0.0 102870